,,Stat6,,Stat2,,Stat8,,Stat9,,Stat10,,Wind1,,Wind1,
time,status,PA1M_AVG,status,PR1M_SUM,status,RH1M_AVG,status,SR1M_AVG,status,TA1M_AVG,status,W1dAve1m,status,W1sAve1m,
2006-01-26, 00:00:00,VALID,918.73,VALID,0,VALID,97.0323,VALID,0.0849042,VALID,19.3495,VALID,102,VALID,0.811111,
2006-01-26, 00:01:00,VALID,918.727,VALID,0,VALID,97.1035,VALID,0.0679233,VALID,19.3393,VALID,109,VALID,0.459339,
2006-01-26, 00:02:00,VALID,918.729,VALID,0,VALID,97.1531,VALID,0.101885,VALID,19.346,VALID,116,VALID,0.662729,
2006-01-26, 00:03:00,VALID,918.713,VALID,0,VALID,97.3184,VALID,0.0509425,VALID,19.3199,VALID,136,VALID,0.914418,
2006-01-26, 00:04:00,VALID,918.705,VALID,0,VALID,97.293,VALID,0.0849042,VALID,19.3105,VALID,105,VALID,0.917259,
2006-01-26, 00:05:00,VALID,918.698,VALID,0,VALID,97.4253,VALID,0.118866,VALID,19.2744,VALID,121,VALID,1.14901,
2006-01-26, 00:06:00,VALID,918.679,VALID,0,VALID,97.5982,VALID,0,VALID,19.2798,VALID,125,VALID,1.05716,
2006-01-26, 00:07:00,VALID,918.658,VALID,0,VALID,97.6847,VALID,0,VALID,19.2637,VALID,115,VALID,1.1673,
2006-01-26, 00:08:00,VALID,918.663,VALID,0,VALID,97.677,VALID,-0.0509425,VALID,19.2406,VALID,113,VALID,1.20419,
2006-01-26, 00:09:00,VALID,918.662,VALID,0,VALID,97.6262,VALID,-0.0339617,VALID,19.2311,VALID,114,VALID,1.12969,
2006-01-26, 00:10:00,VALID,918.648,VALID,0,VALID,97.6224,VALID,-0.0339617,VALID,19.2216,VALID,125,VALID,1.3879,
2006-01-26, 00:11:00,VALID,918.659,VALID,0,VALID,97.5715,VALID,-0.0339617,VALID,19.2184,VALID,131,VALID,1.85538,
2006-01-26, 00:12:00,VALID,918.637,VALID,0,VALID,97.4367,VALID,-0.0339617,VALID,19.2321,VALID,135,VALID,1.34737,
2006-01-26, 00:13:00,VALID,918.641,VALID,0,VALID,97.3477,VALID,-0.0509425,VALID,19.2408,VALID,146,VALID,1.61955,
2006-01-26, 00:14:00,VALID,918.633,VALID,0,VALID,97.2358,VALID,-0.0339617,VALID,19.2667,VALID,146,VALID,1.41624,
2006-01-26, 00:15:00,VALID,918.629,VALID,0,VALID,97.1735,VALID,0,VALID,19.2828,VALID,140,VALID,0.879278,
2006-01-26, 00:16:00,VALID,918.625,VALID,0,VALID,97.1175,VALID,-0.0509425,VALID,19.2863,VALID,142,VALID,1.13903,
2006-01-26, 00:17:00,VALID,918.635,VALID,0,VALID,97.0781,VALID,0,VALID,19.2963,VALID,149,VALID,1.22747,
2006-01-26, 00:18:00,VALID,918.625,VALID,0,VALID,97.0641,VALID,-0.0169808,VALID,19.2893,VALID,148,VALID,1.29185,
2006-01-26, 00:19:00,VALID,918.61,VALID,0,VALID,97.0336,VALID,-0.0339617,VALID,19.2963,VALID,142,VALID,1.17422,
2006-01-26, 00:20:00,VALID,918.612,VALID,0,VALID,96.956,VALID,-0.0169808,VALID,19.306,VALID,140,VALID,1.18136,
2006-01-26, 00:21:00,VALID,918.615,VALID,0,VALID,96.9103,VALID,0.0339617,VALID,19.2946,VALID,158,VALID,1.10632,
2006-01-26, 00:22:00,VALID,918.611,VALID,0,VALID,96.923,VALID,0.0849042,VALID,19.2779,VALID,165,VALID,1.14025,
2006-01-26, 00:23:00,VALID,918.593,VALID,0,VALID,96.9751,VALID,0.0849042,VALID,19.2712,VALID,146,VALID,0.859375,
2006-01-26, 00:24:00,VALID,918.577,VALID,0,VALID,96.9598,VALID,0.0849042,VALID,19.2781,VALID,146,VALID,0.99486,
2006-01-26, 00:25:00,VALID,918.577,VALID,0,VALID,96.9433,VALID,0.0849042,VALID,19.2655,VALID,152,VALID,0.867932,
2006-01-26, 00:26:00,VALID,918.554,VALID,0,VALID,96.8988,VALID,0.0339617,VALID,19.2789,VALID,137,VALID,1.04497,
2006-01-26, 00:27:00,VALID,918.554,VALID,0,VALID,96.8467,VALID,0.0509425,VALID,19.2983,VALID,146,VALID,0.802083,
2006-01-26, 00:28:00,VALID,918.546,VALID,0,VALID,96.717,VALID,0.0679233,VALID,19.2883,VALID,141,VALID,1.10338,
2006-01-26, 00:29:00,VALID,918.518,VALID,0,VALID,96.4245,VALID,0.0679233,VALID,19.2816,VALID,133,VALID,1.46771,
2006-01-26, 00:30:00,VALID,918.51,VALID,0,VALID,96.1549,VALID,0.0509425,VALID,19.3239,VALID,139,VALID,1.19141,
2006-01-26, 00:31:00,VALID,918.5,VALID,0,VALID,95.9731,VALID,0.0679233,VALID,19.3463,VALID,129,VALID,1.07107,
2006-01-26, 00:32:00,VALID,918.504,VALID,0,VALID,95.8726,VALID,0.0849042,VALID,19.3759,VALID,133,VALID,0.979469,
2006-01-26, 00:33:00,VALID,918.482,VALID,0,VALID,95.7048,VALID,0.0339617,VALID,19.3759,VALID,135,VALID,1.39199,
2006-01-26, 00:34:00,VALID,918.469,VALID,0,VALID,95.4924,VALID,0.0169808,VALID,19.3886,VALID,117,VALID,1.17932,
2006-01-26, 00:35:00,VALID,918.463,VALID,0,VALID,95.4225,VALID,0.101885,VALID,19.398,VALID,112,VALID,1.55487,
2006-01-26, 00:36:00,VALID,918.456,VALID,0,VALID,95.3551,VALID,0.169808,VALID,19.3836,VALID,111,VALID,1.19975,
2006-01-26, 00:37:00,VALID,918.439,VALID,0,VALID,95.3449,VALID,0.169808,VALID,19.3965,VALID,119,VALID,1.56499,
2006-01-26, 00:38:00,VALID,918.434,VALID,0,VALID,95.2813,VALID,0.20377,VALID,19.4028,VALID,116,VALID,1.62051,
2006-01-26, 00:39:00,VALID,918.432,VALID,0,VALID,95.3093,VALID,0.118866,VALID,19.4062,VALID,110,VALID,1.0279,
2006-01-26, 00:40:00,VALID,918.434,VALID,0,VALID,95.3513,VALID,0.169808,VALID,19.3933,VALID,122,VALID,1.37367,
2006-01-26, 00:41:00,VALID,918.434,VALID,0,VALID,95.4403,VALID,0.20377,VALID,19.3965,VALID,127,VALID,0.810547,
2006-01-26, 00:42:00,VALID,918.431,VALID,0,VALID,95.5115,VALID,0.169808,VALID,19.361,VALID,118,VALID,0.917969,
2006-01-26, 00:43:00,VALID,918.418,VALID,0,VALID,95.6526,VALID,0.186789,VALID,19.3448,VALID,114,VALID,0.981286,
2006-01-26, 00:44:00,VALID,918.411,VALID,0,VALID,95.8103,VALID,0.169808,VALID,19.3291,VALID,125,VALID,1.20903,
2006-01-26, 00:45:00,VALID,918.401,VALID,0,VALID,95.8815,VALID,0.135847,VALID,19.303,VALID,118,VALID,1.13548,
2006-01-26, 00:46:00,VALID,918.376,VALID,0,VALID,95.9426,VALID,0.152827,VALID,19.2836,VALID,110,VALID,0.89008,
2006-01-26, 00:47:00,VALID,918.362,VALID,0,VALID,96.029,VALID,0.186789,VALID,19.2478,VALID,115,VALID,0.811756,
2006-01-26, 00:48:00,VALID,918.345,VALID,0,VALID,96.1676,VALID,0.152827,VALID,19.2423,VALID,117,VALID,0.980808,
2006-01-26, 00:49:00,VALID,918.326,VALID,0,VALID,96.2745,VALID,0.152827,VALID,19.2028,VALID,128,VALID,0.575462,
2006-01-26, 00:50:00,VALID,918.303,VALID,0,VALID,96.3482,VALID,0.152827,VALID,19.1802,VALID,128,VALID,0.538872,
2006-01-26, 00:51:00,VALID,918.297,VALID,0,VALID,96.5669,VALID,0.101885,VALID,19.1451,VALID,138,VALID,0.823289,
2006-01-26, 00:52:00,VALID,918.29,VALID,0,VALID,96.6686,VALID,0.0679233,VALID,19.1364,VALID,136,VALID,0.759722,
2006-01-26, 00:53:00,VALID,918.27,VALID,0,VALID,96.7259,VALID,0.0509425,VALID,19.1138,VALID,130,VALID,0.488032,
2006-01-26, 00:54:00,VALID,918.265,VALID,0,VALID,96.8721,VALID,0.0679233,VALID,19.0849,VALID,130,VALID,0.499442,
2006-01-26, 00:55:00,VALID,918.254,VALID,0,VALID,96.9179,VALID,0.0509425,VALID,19.059,VALID,135,VALID,0.642113,
2006-01-26, 00:56:00,VALID,918.254,VALID,0,VALID,96.9153,VALID,0.0509425,VALID,19.0265,VALID,144,VALID,0.455305,
2006-01-26, 00:57:00,VALID,918.24,VALID,0,VALID,97.0005,VALID,0.0509425,VALID,18.9911,VALID,141,VALID,0.503819,
2006-01-26, 00:58:00,VALID,918.225,VALID,0,VALID,97.1735,VALID,0.0679233,VALID,18.9646,VALID,149,VALID,0.674219,
2006-01-26, 00:59:00,VALID,918.239,VALID,0,VALID,97.3591,VALID,0.0679233,VALID,18.9427,VALID,156,VALID,0.788086,
2006-01-26, 01:00:00,VALID,918.234,VALID,0,VALID,97.6185,VALID,0.0509425,VALID,18.9166,VALID,152,VALID,0.801847,
2006-01-26, 01:01:00,VALID,918.223,VALID,0,VALID,97.7546,VALID,0.0679233,VALID,18.9099,VALID,149,VALID,0.512962,
2006-01-26, 01:02:00,VALID,918.228,VALID,0,VALID,97.8029,VALID,0.0509425,VALID,18.8879,VALID,156,VALID,0.393821,
2006-01-26, 01:03:00,VALID,918.223,VALID,0,VALID,97.9326,VALID,0.0509425,VALID,18.8748,VALID,162,VALID,0.111178,
2006-01-26, 01:04:00,VALID,918.217,VALID,0,VALID,98.0127,VALID,0.0509425,VALID,18.8618,VALID,162,VALID,0.365412,
2006-01-26, 01:05:00,VALID,918.199,VALID,0,VALID,98.1056,VALID,0.0339617,VALID,18.8365,VALID,162,VALID,0.359012,
2006-01-26, 01:06:00,VALID,918.185,VALID,0,VALID,98.1501,VALID,0.0339617,VALID,18.8171,VALID,162,VALID,0.152344,
2006-01-26, 01:07:00,VALID,918.163,VALID,0,VALID,98.1857,VALID,0.0849042,VALID,18.788,VALID,160,VALID,0.202567,
2006-01-26, 01:08:00,VALID,918.146,VALID,0,VALID,98.2607,VALID,0.0169808,VALID,18.7589,VALID,159,VALID,0.345084,
2006-01-26, 01:09:00,VALID,918.114,VALID,0,VALID,98.4082,VALID,0.0339617,VALID,18.7332,VALID,159,VALID,0.220655,
2006-01-26, 01:10:00,VALID,918.092,VALID,0,VALID,98.4108,VALID,0.0339617,VALID,18.6935,VALID,154,VALID,0.417869,
2006-01-26, 01:11:00,VALID,918.069,VALID,0,VALID,98.5303,VALID,0.0509425,VALID,18.6684,VALID,149,VALID,0.585938,
2006-01-26, 01:12:00,VALID,918.065,VALID,0,VALID,98.5888,VALID,0.0339617,VALID,18.6358,VALID,142,VALID,0.615552,
2006-01-26, 01:13:00,VALID,918.05,VALID,0,VALID,98.721,VALID,0.0679233,VALID,18.6002,VALID,134,VALID,0.927912,
2006-01-26, 01:14:00,VALID,918.027,VALID,0,VALID,98.8393,VALID,0.0679233,VALID,18.6002,VALID,119,VALID,1.20313,
2006-01-26, 01:15:00,VALID,918.016,VALID,0,VALID,98.5926,VALID,0.0339617,VALID,18.5975,VALID,119,VALID,1.40358,
2006-01-26, 01:16:00,VALID,918.014,VALID,0,VALID,98.4425,VALID,0.0679233,VALID,18.6102,VALID,122,VALID,1.13555,
2006-01-26, 01:17:00,VALID,918.006,VALID,0,VALID,98.2111,VALID,0.0679233,VALID,18.6164,VALID,123,VALID,0.823509,
2006-01-26, 01:18:00,VALID,918.004,VALID,0,VALID,98.0394,VALID,0.0509425,VALID,18.6199,VALID,123,VALID,0.645419,
2006-01-26, 01:19:00,VALID,918.001,VALID,0,VALID,98.014,VALID,0.0169808,VALID,18.6236,VALID,122,VALID,0.732558,
2006-01-26, 01:20:00,VALID,918.007,VALID,0,VALID,98.0496,VALID,0.0509425,VALID,18.6069,VALID,122,VALID,0.515957,
2006-01-26, 01:21:00,VALID,917.981,VALID,0,VALID,98.0839,VALID,0.118866,VALID,18.603,VALID,122,VALID,0.705788,
2006-01-26, 01:22:00,VALID,917.965,VALID,0,VALID,98.1081,VALID,0.152827,VALID,18.5961,VALID,122,VALID,0.939631,
2006-01-26, 01:23:00,VALID,917.946,VALID,0,VALID,98.1971,VALID,0.101885,VALID,18.5638,VALID,129,VALID,1.04315,
2006-01-26, 01:24:00,VALID,917.94,VALID,0,VALID,98.4858,VALID,0.152827,VALID,18.561,VALID,133,VALID,0.924538,
2006-01-26, 01:25:00,VALID,917.949,VALID,0,VALID,98.5761,VALID,0.101885,VALID,18.5506,VALID,149,VALID,0.959263,
2006-01-26, 01:26:00,VALID,917.949,VALID,0,VALID,98.693,VALID,0.118866,VALID,18.5508,VALID,154,VALID,0.805414,
2006-01-26, 01:27:00,VALID,917.948,VALID,0,VALID,98.8062,VALID,0.135847,VALID,18.5347,VALID,155,VALID,1.0014,
2006-01-26, 01:28:00,VALID,917.932,VALID,0,VALID,99.0707,VALID,0.169808,VALID,18.5481,VALID,167,VALID,0.436328,
2006-01-26, 01:29:00,VALID,917.918,VALID,0,VALID,99.1712,VALID,0.135847,VALID,18.5511,VALID,151,VALID,1.10392,
2006-01-26, 01:30:00,VALID,917.896,VALID,0,VALID,99.2513,VALID,0.135847,VALID,18.5441,VALID,136,VALID,1.24591,
2006-01-26, 01:31:00,VALID,917.895,VALID,0,VALID,99.2589,VALID,0.135847,VALID,18.5451,VALID,132,VALID,1.34925,
2006-01-26, 01:32:00,VALID,917.891,VALID,0,VALID,99.414,VALID,0.169808,VALID,18.5123,VALID,136,VALID,1.29464,
2006-01-26, 01:33:00,VALID,917.889,VALID,0,VALID,99.7002,VALID,0.152827,VALID,18.4767,VALID,138,VALID,1.30373,
2006-01-26, 01:34:00,VALID,917.891,VALID,0,VALID,99.8934,VALID,0.186789,VALID,18.425,VALID,150,VALID,0.966264,
2006-01-26, 01:35:00,VALID,917.917,VALID,0,VALID,100,VALID,0.101885,VALID,18.4086,VALID,169,VALID,0.737351,
2006-01-26, 01:36:00,VALID,917.917,VALID,0,VALID,100,VALID,0.0339617,VALID,18.3936,VALID,177,VALID,0.647507,
2006-01-26, 01:37:00,VALID,917.928,VALID,0,VALID,100,VALID,0.0509425,VALID,18.3837,VALID,172,VALID,0.932351,
2006-01-26, 01:38:00,VALID,917.919,VALID,0,VALID,100,VALID,0.0169808,VALID,18.3902,VALID,152,VALID,1.14101,
2006-01-26, 01:39:00,VALID,917.909,VALID,0,VALID,100,VALID,0.0169808,VALID,18.4005,VALID,142,VALID,1.2885,
2006-01-26, 01:40:00,VALID,917.889,VALID,0,VALID,100,VALID,0.0339617,VALID,18.404,VALID,133,VALID,1.38935,
2006-01-26, 01:41:00,VALID,917.874,VALID,0,VALID,100,VALID,-0.0169808,VALID,18.41,VALID,128,VALID,1.28496,
2006-01-26, 01:42:00,VALID,917.861,VALID,0,VALID,100,VALID,0.0339617,VALID,18.4135,VALID,125,VALID,1.47438,
2006-01-26, 01:43:00,VALID,917.87,VALID,0,VALID,100,VALID,0.0339617,VALID,18.3945,VALID,140,VALID,1.38154,
2006-01-26, 01:44:00,VALID,917.876,VALID,0,VALID,100,VALID,0.0339617,VALID,18.3968,VALID,143,VALID,1.14787,
2006-01-26, 01:45:00,VALID,917.876,VALID,0,VALID,100,VALID,-0.0339617,VALID,18.4331,VALID,152,VALID,1.19931,
2006-01-26, 01:46:00,VALID,917.884,VALID,0,VALID,100,VALID,-0.0169808,VALID,18.4687,VALID,147,VALID,1.15764,
2006-01-26, 01:47:00,VALID,917.877,VALID,0,VALID,99.9906,VALID,0.0169808,VALID,18.4977,VALID,152,VALID,1.22266,
2006-01-26, 01:48:00,VALID,917.876,VALID,0,VALID,99.9125,VALID,-0.0169808,VALID,18.5361,VALID,158,VALID,1.26776,
2006-01-26, 01:49:00,VALID,917.873,VALID,0,VALID,99.7167,VALID,-0.0339617,VALID,18.5756,VALID,135,VALID,1.07292,
2006-01-26, 01:50:00,VALID,917.867,VALID,0,VALID,99.5616,VALID,-0.0169808,VALID,18.5977,VALID,148,VALID,1.29936,
2006-01-26, 01:51:00,VALID,917.858,VALID,0,VALID,99.3568,VALID,0.0679233,VALID,18.6206,VALID,136,VALID,1.73633,
2006-01-26, 01:52:00,VALID,917.856,VALID,0,VALID,99.0516,VALID,-0.0169808,VALID,18.6628,VALID,140,VALID,1.16815,
2006-01-26, 01:53:00,VALID,917.841,VALID,0,VALID,98.8189,VALID,0.0509425,VALID,18.6822,VALID,133,VALID,1.17206,
2006-01-26, 01:54:00,VALID,917.825,VALID,0,VALID,98.6638,VALID,-0.0169808,VALID,18.682,VALID,123,VALID,1.32679,
2006-01-26, 01:55:00,VALID,917.811,VALID,0,VALID,98.6078,VALID,0.0169808,VALID,18.6949,VALID,126,VALID,1.29961,
2006-01-26, 01:56:00,VALID,917.791,VALID,0,VALID,98.5494,VALID,0.0339617,VALID,18.6945,VALID,133,VALID,0.655692,
2006-01-26, 01:57:00,VALID,917.785,VALID,0,VALID,98.5481,VALID,0,VALID,18.6915,VALID,137,VALID,0.878452,
2006-01-26, 01:58:00,VALID,917.779,VALID,0,VALID,98.5811,VALID,0.0169808,VALID,18.6917,VALID,139,VALID,0.899926,
2006-01-26, 01:59:00,VALID,917.764,VALID,0,VALID,98.5672,VALID,-0.0169808,VALID,18.6887,VALID,135,VALID,0.718006,
2006-01-26, 02:00:00,VALID,917.748,VALID,0,VALID,98.5799,VALID,0.0169808,VALID,18.6818,VALID,134,VALID,0.657853,
2006-01-26, 02:01:00,VALID,917.718,VALID,0,VALID,98.5544,VALID,0.0169808,VALID,18.6855,VALID,137,VALID,0.882612,
2006-01-26, 02:02:00,VALID,917.695,VALID,0,VALID,98.543,VALID,-0.0169808,VALID,18.6688,VALID,114,VALID,0.736979,
2006-01-26, 02:03:00,VALID,917.683,VALID,0,VALID,98.4934,VALID,-0.0169808,VALID,18.6758,VALID,96,VALID,1.17915,
2006-01-26, 02:04:00,VALID,917.658,VALID,0,VALID,98.5048,VALID,0.0339617,VALID,18.6591,VALID,108,VALID,0.975991,
2006-01-26, 02:05:00,VALID,917.635,VALID,0,VALID,98.6651,VALID,-0.0169808,VALID,18.6367,VALID,108,VALID,0.950521,
2006-01-26, 02:06:00,VALID,917.628,VALID,0,VALID,98.8113,VALID,0.101885,VALID,18.6226,VALID,133,VALID,1.19375,
2006-01-26, 02:07:00,VALID,917.626,VALID,0,VALID,98.7795,VALID,0.118866,VALID,18.5993,VALID,109,VALID,0.433117,
2006-01-26, 02:08:00,VALID,917.622,VALID,0,VALID,98.838,VALID,0.0849042,VALID,18.5993,VALID,120,VALID,0.55564,
2006-01-26, 02:09:00,VALID,917.637,VALID,0,VALID,98.9181,VALID,0.118866,VALID,18.6032,VALID,142,VALID,0.933789,
2006-01-26, 02:10:00,VALID,917.643,VALID,0,VALID,98.9703,VALID,0.152827,VALID,18.5836,VALID,126,VALID,0.546484,
2006-01-26, 02:11:00,VALID,917.656,VALID,0,VALID,98.9855,VALID,0.152827,VALID,18.5702,VALID,101,VALID,0.975675,
2006-01-26, 02:12:00,VALID,917.655,VALID,0,VALID,98.9461,VALID,0.135847,VALID,18.5605,VALID,127,VALID,0.748001,
2006-01-26, 02:13:00,VALID,917.666,VALID,0,VALID,98.9995,VALID,0.152827,VALID,18.5379,VALID,117,VALID,0.491629,
2006-01-26, 02:14:00,VALID,917.689,VALID,0,VALID,99.0224,VALID,0.152827,VALID,18.5317,VALID,120,VALID,0.310937,
2006-01-26, 02:15:00,VALID,917.699,VALID,0,VALID,99.016,VALID,0.135847,VALID,18.5155,VALID,122,VALID,0.132457,
2006-01-26, 02:16:00,VALID,917.691,VALID,0,VALID,99.1241,VALID,0.152827,VALID,18.509,VALID,139,VALID,0.334375,
2006-01-26, 02:17:00,VALID,917.681,VALID,0,VALID,99.1101,VALID,0.169808,VALID,18.4959,VALID,161,VALID,0.519531,
2006-01-26, 02:18:00,VALID,917.681,VALID,0,VALID,99.0656,VALID,0.135847,VALID,18.4832,VALID,130,VALID,0.676562,
2006-01-26, 02:19:00,VALID,917.67,VALID,0,VALID,99.0389,VALID,0.135847,VALID,18.4576,VALID,144,VALID,0.667436,
2006-01-26, 02:20:00,VALID,917.649,VALID,0,VALID,99.0491,VALID,0.0849042,VALID,18.4347,VALID,112,VALID,0.475204,
2006-01-26, 02:21:00,VALID,917.659,VALID,0,VALID,99.0084,VALID,0.101885,VALID,18.4294,VALID,131,VALID,0.846912,
2006-01-26, 02:22:00,VALID,917.655,VALID,0,VALID,98.9474,VALID,-0.0679233,VALID,18.428,VALID,148,VALID,0.621603,
2006-01-26, 02:23:00,VALID,917.641,VALID,0,VALID,98.88,VALID,-0.0169808,VALID,18.4015,VALID,129,VALID,0.52381,
2006-01-26, 02:24:00,VALID,917.637,VALID,0,VALID,98.7833,VALID,-0.0509425,VALID,18.3858,VALID,134,VALID,0.341797,
2006-01-26, 02:25:00,VALID,917.63,VALID,0,VALID,98.7617,VALID,-0.0169808,VALID,18.3567,VALID,81,VALID,0.63418,
2006-01-26, 02:26:00,VALID,917.624,VALID,0,VALID,98.7477,VALID,-0.0509425,VALID,18.3271,VALID,96,VALID,0.546875,
2006-01-26, 02:27:00,VALID,917.607,VALID,0,VALID,98.763,VALID,-0.0509425,VALID,18.3278,VALID,104,VALID,0.475446,
2006-01-26, 02:28:00,VALID,917.589,VALID,0,VALID,98.6206,VALID,0,VALID,18.3114,VALID,104,VALID,0.159268,
2006-01-26, 02:29:00,VALID,917.581,VALID,0,VALID,98.4031,VALID,0.0169808,VALID,18.299,VALID,90,VALID,0.537287,
2006-01-26, 02:30:00,VALID,917.552,VALID,0,VALID,98.4222,VALID,-0.0509425,VALID,18.2731,VALID,90,VALID,0.749428,
2006-01-26, 02:31:00,VALID,917.554,VALID,0,VALID,98.5023,VALID,-0.0339617,VALID,18.2597,VALID,96,VALID,0.727307,
2006-01-26, 02:32:00,VALID,917.554,VALID,0,VALID,98.4222,VALID,0,VALID,18.2535,VALID,118,VALID,0.90952,
2006-01-26, 02:33:00,VALID,917.545,VALID,0,VALID,98.398,VALID,-0.0339617,VALID,18.2433,VALID,120,VALID,0.736852,
2006-01-26, 02:34:00,VALID,917.529,VALID,0,VALID,98.3192,VALID,-0.0169808,VALID,18.25,VALID,102,VALID,1.03038,
2006-01-26, 02:35:00,VALID,917.525,VALID,0,VALID,98.3014,VALID,-0.0169808,VALID,18.2505,VALID,104,VALID,0.944041,
2006-01-26, 02:36:00,VALID,917.502,VALID,0,VALID,98.2442,VALID,0.0509425,VALID,18.2717,VALID,118,VALID,1.1795,
2006-01-26, 02:37:00,VALID,917.49,VALID,0,VALID,98.2035,VALID,0.0509425,VALID,18.2909,VALID,117,VALID,1.0692,
2006-01-26, 02:38:00,VALID,917.476,VALID,0,VALID,98.1399,VALID,0.0339617,VALID,18.3003,VALID,127,VALID,0.933694,
2006-01-26, 02:39:00,VALID,917.463,VALID,0,VALID,98.117,VALID,0.0849042,VALID,18.3267,VALID,126,VALID,0.637718,
2006-01-26, 02:40:00,VALID,917.462,VALID,0,VALID,98.0229,VALID,0.0509425,VALID,18.3237,VALID,120,VALID,0.473684,
2006-01-26, 02:41:00,VALID,917.444,VALID,0,VALID,97.9759,VALID,0.0679233,VALID,18.314,VALID,131,VALID,0.737891,
2006-01-26, 02:42:00,VALID,917.432,VALID,0,VALID,97.9733,VALID,0.0679233,VALID,18.2906,VALID,131,VALID,0.599019,
2006-01-26, 02:43:00,VALID,917.426,VALID,0,VALID,98.0509,VALID,0.0679233,VALID,18.2713,VALID,117,VALID,0.709821,
2006-01-26, 02:44:00,VALID,917.418,VALID,0,VALID,98.2365,VALID,0.101885,VALID,18.2521,VALID,112,VALID,0.913175,
2006-01-26, 02:45:00,VALID,917.41,VALID,0,VALID,98.3561,VALID,0.0849042,VALID,18.2491,VALID,121,VALID,0.974564,
2006-01-26, 02:46:00,VALID,917.405,VALID,0,VALID,98.4298,VALID,0.0849042,VALID,18.2456,VALID,108,VALID,1.17738,
2006-01-26, 02:47:00,VALID,917.413,VALID,0,VALID,98.2709,VALID,0.101885,VALID,18.2652,VALID,112,VALID,0.990885,
2006-01-26, 02:48:00,VALID,917.412,VALID,0,VALID,98.281,VALID,0.101885,VALID,18.262,VALID,118,VALID,1.10842,
2006-01-26, 02:49:00,VALID,917.416,VALID,0,VALID,98.2251,VALID,0.0849042,VALID,18.2392,VALID,127,VALID,0.918605,
2006-01-26, 02:50:00,VALID,917.403,VALID,0,VALID,98.2721,VALID,0.0679233,VALID,18.2325,VALID,140,VALID,1.14262,
2006-01-26, 02:51:00,VALID,917.412,VALID,0,VALID,98.1094,VALID,0,VALID,18.2306,VALID,134,VALID,0.804306,
2006-01-26, 02:52:00,VALID,917.412,VALID,0,VALID,98.0712,VALID,0.0169808,VALID,18.1886,VALID,135,VALID,0.667259,
2006-01-26, 02:53:00,VALID,917.408,VALID,0,VALID,98.2569,VALID,-0.0169808,VALID,18.1699,VALID,144,VALID,0.833807,
2006-01-26, 02:54:00,VALID,917.414,VALID,0,VALID,98.4375,VALID,-0.0679233,VALID,18.147,VALID,141,VALID,0.705602,
2006-01-26, 02:55:00,VALID,917.43,VALID,0,VALID,98.4832,VALID,-0.0679233,VALID,18.1214,VALID,132,VALID,0.772321,
2006-01-26, 02:56:00,VALID,917.421,VALID,0,VALID,98.6803,VALID,-0.0679233,VALID,18.1087,VALID,127,VALID,0.982515,
2006-01-26, 02:57:00,VALID,917.406,VALID,0,VALID,98.7541,VALID,-0.0339617,VALID,18.0794,VALID,117,VALID,0.881696,
2006-01-26, 02:58:00,VALID,917.38,VALID,0,VALID,98.9118,VALID,0,VALID,18.0701,VALID,102,VALID,0.764063,
2006-01-26, 02:59:00,VALID,917.368,VALID,0,VALID,98.9715,VALID,-0.0339617,VALID,18.0374,VALID,111,VALID,0.822049,
2006-01-26, 03:00:00,VALID,917.356,VALID,0,VALID,99.1432,VALID,-0.0339617,VALID,18.0346,VALID,100,VALID,0.703536,
2006-01-26, 03:01:00,VALID,917.334,VALID,0,VALID,99.2538,VALID,-0.0509425,VALID,18.008,VALID,99,VALID,0.544779,
2006-01-26, 03:02:00,VALID,917.336,VALID,0,VALID,99.2665,VALID,-0.0339617,VALID,17.9914,VALID,99,VALID,0.211496,
2006-01-26, 03:03:00,VALID,917.318,VALID,0,VALID,99.0453,VALID,-0.0169808,VALID,17.9596,VALID,99,VALID,0.0380345,
2006-01-26, 03:04:00,VALID,917.31,VALID,0,VALID,98.8584,VALID,-0.0509425,VALID,17.924,VALID,99,VALID,0.167411,
2006-01-26, 03:05:00,VALID,917.294,VALID,0,VALID,98.8342,VALID,-0.0509425,VALID,17.8889,VALID,99,VALID,0.259301,
2006-01-26, 03:06:00,VALID,917.287,VALID,0,VALID,99.0504,VALID,0.0169808,VALID,17.8615,VALID,99,VALID,0.248998,
2006-01-26, 03:07:00,VALID,917.275,VALID,0,VALID,99.2144,VALID,0.0339617,VALID,17.8449,VALID,99,VALID,0.202474,
2006-01-26, 03:08:00,VALID,917.258,VALID,0,VALID,99.3543,VALID,0.0339617,VALID,17.8418,VALID,99,VALID,0.495046,
2006-01-26, 03:09:00,VALID,917.246,VALID,0,VALID,99.3899,VALID,0.0339617,VALID,17.8393,VALID,99,VALID,0.522711,
2006-01-26, 03:10:00,VALID,917.256,VALID,0,VALID,99.6722,VALID,0.101885,VALID,17.8416,VALID,99,VALID,0.436592,
2006-01-26, 03:11:00,VALID,917.244,VALID,0,VALID,99.7408,VALID,0.0509425,VALID,17.858,VALID,99,VALID,0.346058,
2006-01-26, 03:12:00,VALID,917.23,VALID,0,VALID,99.5654,VALID,0.0509425,VALID,17.8578,VALID,99,VALID,0.0137195,
2006-01-26, 03:13:00,VALID,917.237,VALID,0,VALID,99.3848,VALID,0.0679233,VALID,17.8388,VALID,99,VALID,0,
2006-01-26, 03:14:00,VALID,917.244,VALID,0,VALID,99.3556,VALID,0.0169808,VALID,17.8123,VALID,99,VALID,0.0513393,
2006-01-26, 03:15:00,VALID,917.248,VALID,0,VALID,99.3301,VALID,0.0169808,VALID,17.8065,VALID,99,VALID,0.0472561,
2006-01-26, 03:16:00,VALID,917.253,VALID,0,VALID,99.4649,VALID,0.0339617,VALID,17.81,VALID,99,VALID,0.193132,
2006-01-26, 03:17:00,VALID,917.254,VALID,0,VALID,99.5463,VALID,0.0509425,VALID,17.8098,VALID,99,VALID,0,
2006-01-26, 03:18:00,VALID,917.242,VALID,0,VALID,99.6785,VALID,0.0339617,VALID,17.8065,VALID,99,VALID,0.0130208,
2006-01-26, 03:19:00,VALID,917.24,VALID,0,VALID,99.9664,VALID,0.0849042,VALID,17.816,VALID,99,VALID,0.0178052,
2006-01-26, 03:20:00,VALID,917.233,VALID,0,VALID,100,VALID,0.0679233,VALID,17.8229,VALID,99,VALID,0,
2006-01-26, 03:21:00,VALID,917.226,VALID,0,VALID,100,VALID,0.0339617,VALID,17.8001,VALID,99,VALID,0,
2006-01-26, 03:22:00,VALID,917.222,VALID,0,VALID,99.9728,VALID,0.0339617,VALID,17.7712,VALID,99,VALID,0,
2006-01-26, 03:23:00,VALID,917.209,VALID,0,VALID,99.8032,VALID,0.0509425,VALID,17.7421,VALID,99,VALID,0,
2006-01-26, 03:24:00,VALID,917.201,VALID,0,VALID,99.4293,VALID,0.0509425,VALID,17.6805,VALID,99,VALID,0,
2006-01-26, 03:25:00,VALID,917.197,VALID,0,VALID,98.4743,VALID,0.0679233,VALID,17.5193,VALID,99,VALID,0.178735,
2006-01-26, 03:26:00,VALID,917.202,VALID,0,VALID,98.3751,VALID,0.0339617,VALID,17.3799,VALID,99,VALID,0.201736,
2006-01-26, 03:27:00,VALID,917.204,VALID,0,VALID,98.5379,VALID,0.0509425,VALID,17.3061,VALID,99,VALID,0,
2006-01-26, 03:28:00,VALID,917.213,VALID,0,VALID,98.8456,VALID,0.0509425,VALID,17.2378,VALID,99,VALID,0,
2006-01-26, 03:29:00,VALID,917.214,VALID,0,VALID,99.3441,VALID,0.0849042,VALID,17.2509,VALID,99,VALID,0,
2006-01-26, 03:30:00,VALID,917.207,VALID,0,VALID,99.7444,VALID,0.0509425,VALID,17.2574,VALID,99,VALID,0.0997869,
2006-01-26, 03:31:00,VALID,917.196,VALID,0,VALID,100,VALID,0.0339617,VALID,17.2931,VALID,99,VALID,0.151867,
2006-01-26, 03:32:00,VALID,917.196,VALID,0,VALID,100,VALID,0.0339617,VALID,17.3254,VALID,99,VALID,0,
2006-01-26, 03:33:00,VALID,917.174,VALID,0,VALID,100,VALID,0.0509425,VALID,17.3511,VALID,99,VALID,0.0628634,